Starlink 3629

operational
NORAD ID: 51774 Int'l Des: 2022-017 Owner: SPXS Country: US Constellation: starlink
LEOCIRCULAR

About Starlink 3629

Description loading...

Live Position

Loading 3D Globe...

Upcoming Passes

Altitude History

Altitude vs Time

uPlot chart will show altitude changes over time

Two-Line Element Set

1 51774U 22017G 25355.10060392 .00000404 00000-0 43467-4 0 9993
2 51774 53.2182 331.9211 0001209 79.2481 280.8647 15.08835329210709
Epoch: Dec 21, 2025 • Age: 8 hours

Current Status

Altitude 558.9 km
Velocity 7.58 km/s
Sub-Earth Point -52.63°S, 11.88°W
Launch Date Feb 25, 2022
Age 3.8 years
Type internet

Technical Details

Classification Payload
Mass 297.00 kg
Dry Mass 275.00 kg
Total Mass 297.00 kg
Length 0.20 m
Diameter 2.80 m
Span 9.00 m
Shape Box + pan
Manufacturer SPXS
Bus Type Starlink
Phase Status In Orbit
Owner/State SPXS/US

Large Constellations

Loading constellations...